Regional Weather Roundup
Issued by NWS

Home | Current Version | Previous Version | Text Only | Print | Product List | Glossary Off
Versions: 1 2 3 4 5 6 7 8 9 10 11 12 13 14 15 16 17 18 19 20 21 22 23 24 25 26 27

000
ASUS45 KBOI 161710
RWRID

IDAHO REGIONAL WEATHER ROUNDUP
NATIONAL WEATHER SERVICE BOISE ID
1000 AM MST MON JAN 16 2017

NOTE: "FAIR" INDICATES FEW OR NO CLOUDS BELOW 12000 FEET
WITH NO SIGNIFICANT WEATHER AND/OR OBSTRUCTIONS TO VISIBILITY

IDZ012-014-161800-
SOUTHWEST IDAHO


CITY           SKY/WX    TMP DP  RH WIND       PRES   REMARKS
BOISE          SUNNY      5   0  79 CALM      30.49R
CALDWELL       LGT SNOW   3   1  92 CALM      30.56R FOG
MOUNTAIN HOME  SUNNY      2   1  97 SE5       30.48R WCI  -7
$$

IDZ016-017-161800-
SOUTHCENTRAL IDAHO


CITY           SKY/WX    TMP DP  RH WIND       PRES   REMARKS
BURLEY         LGT SNOW  13   9  84 N3        30.35S FOG
JEROME         PTSUNNY    8   3  80 E7        30.38R WCI  -3
TWIN FALLS     SUNNY     11   8  88 E5        30.36R FOG     WCI   3
$$

IDZ019>023-161800-
SOUTHEAST IDAHO


CITY           SKY/WX    TMP DP  RH WIND       PRES   REMARKS
IDAHO FALLS    CLOUDY    -5  -8  87 N6        30.36R FOG     WCI -18
POCATELLO      FLURRIES   3  -1  83 CALM      30.37R
REXBURG        LGT SNOW  -6  -9  86 NE5       30.34R FOG     WCI -17
$$

IDZ006-010-011-018-031-032-161800-
CENTRAL IDAHO MOUNTAINS


CITY           SKY/WX    TMP DP  RH WIND       PRES   REMARKS
MCCALL         SUNNY     -6  -8  91 CALM      30.28R
HAILEY         SUNNY      9   1  72 NW5       30.29R WCI   0
STANLEY          N/A    -18 -21  87 CALM      30.31F
SALMON         CLOUDY   -20 -29  63 CALM      30.55S
CHALLIS        SUNNY    -20 -26  74 CALM      30.42S
$$

IDZ002-004-006-007-026-161800-
NORTHERN IDAHO


CITY           SKY/WX    TMP DP  RH WIND       PRES   REMARKS
LEWISTON       CLOUDY     9   6  88 E8        30.47R WCI  -3
LOWELL           N/A     10   5  80 VRB3      30.52F
COEUR D`ALENE  CLOUDY    16  14  92 E5        30.39F WCI   9
MULLAN PASS    MOSUNNY   21  15  78 W5        30.17R WCI  15
$$




USA.gov is the U.S. government's official web portal to all federal, state and local government web resources and services.